DLH274 EDDK-EDDH

Flight info

Callsign DLH274
Flight time 0h 43m
Altitude 35000
Route PODIP9B PODIP Y867 PELUN DCT ANZIV DCT WRB Y867 TOLGI DCT SAS/N0449F340 P605 NOLGO NOLGO3P
Aircraft A320/M-SDE3FGHIRWY/LB1

Departure

Time 2026-04-24 20:23
Airport Cologne Bonn Airport (EDDK)

Arrival

Time 2026-04-24 21:06
Airport Hamburg Helmut Schmidt Airport (EDDH)
Time Latitude Longitude Altitude Speed Heading
2026-04-24 19:57 50.88172 7.11948 230 ft 0 kts 216°
2026-04-24 20:12 50.88183 7.11960 232 ft 4 kts 216°
2026-04-24 20:12 50.88204 7.11983 234 ft 4 kts 196°
2026-04-24 20:12 50.88209 7.11986 234 ft 0 kts 184°
2026-04-24 20:12 50.88208 7.11986 235 ft 0 kts 182°
2026-04-24 20:13 50.88208 7.11990 234 ft 0 kts 144°
2026-04-24 20:15 50.88178 7.12048 230 ft 18 kts 126°
2026-04-24 20:15 50.88132 7.12141 230 ft 13 kts 128°
2026-04-24 20:16 50.88082 7.12357 231 ft 26 kts 122°
2026-04-24 20:16 50.87983 7.12520 230 ft 21 kts 138°
2026-04-24 20:16 50.87857 7.12617 230 ft 27 kts 167°
2026-04-24 20:16 50.87689 7.12817 230 ft 33 kts 134°
2026-04-24 20:17 50.87514 7.13066 232 ft 34 kts 139°
2026-04-24 20:17 50.87274 7.13411 237 ft 23 kts 140°
2026-04-24 20:17 50.87141 7.13607 239 ft 28 kts 137°
2026-04-24 20:18 50.87044 7.13751 242 ft 28 kts 137°
2026-04-24 20:18 50.86946 7.13890 244 ft 10 kts 137°
2026-04-24 20:18 50.86865 7.14009 245 ft 19 kts 139°
2026-04-24 20:18 50.86749 7.14140 252 ft 21 kts 152°
2026-04-24 20:19 50.86668 7.14231 257 ft 22 kts 137°
2026-04-24 20:19 50.86545 7.14409 258 ft 26 kts 137°
2026-04-24 20:19 50.86410 7.14605 264 ft 26 kts 137°
2026-04-24 20:19 50.86276 7.14802 269 ft 26 kts 137°
2026-04-24 20:20 50.86138 7.15001 273 ft 27 kts 138°
2026-04-24 20:20 50.85996 7.15206 278 ft 28 kts 139°
2026-04-24 20:20 50.85858 7.15409 286 ft 27 kts 137°
2026-04-24 20:20 50.85724 7.15601 297 ft 27 kts 138°
2026-04-24 20:21 50.85582 7.15802 302 ft 29 kts 138°
2026-04-24 20:21 50.85436 7.16015 302 ft 26 kts 138°
2026-04-24 20:21 50.85339 7.16240 308 ft 25 kts 97°
2026-04-24 20:21 50.85403 7.16455 311 ft 20 kts 39°
2026-04-24 20:22 50.85527 7.16528 313 ft 20 kts
2026-04-24 20:22 50.85598 7.16456 310 ft 0 kts 317°
2026-04-24 20:22 50.85600 7.16454 310 ft 2 kts 317°
2026-04-24 20:22 50.85684 7.16330 309 ft 34 kts 317°
2026-04-24 20:23 50.86074 7.15762 293 ft 115 kts 317°
2026-04-24 20:23 50.86824 7.14750 479 ft 156 kts 321°
2026-04-24 20:23 50.87662 7.13598 1172 ft 160 kts 318°
2026-04-24 20:23 50.88485 7.12393 1843 ft 167 kts 319°
2026-04-24 20:24 50.89500 7.11308 2216 ft 188 kts 345°
2026-04-24 20:24 50.90841 7.11496 2632 ft 206 kts 24°
2026-04-24 20:24 50.92132 7.12581 3369 ft 212 kts 27°
2026-04-24 20:24 50.93350 7.13913 4255 ft 216 kts 46°
2026-04-24 20:25 50.94206 7.15993 4836 ft 240 kts 61°
2026-04-24 20:25 50.94990 7.18443 4976 ft 259 kts 62°
2026-04-24 20:25 50.95797 7.21025 5003 ft 262 kts 62°
2026-04-24 20:25 50.96603 7.23624 5008 ft 263 kts 62°
2026-04-24 20:26 50.97410 7.26224 5010 ft 262 kts 62°
2026-04-24 20:26 50.98220 7.28822 5001 ft 262 kts 62°
2026-04-24 20:26 50.99031 7.31411 5002 ft 262 kts 61°
2026-04-24 20:26 50.99856 7.34027 5304 ft 270 kts 61°
2026-04-24 20:27 51.00694 7.36675 6412 ft 268 kts 61°
2026-04-24 20:27 51.01446 7.39393 7379 ft 273 kts 71°
2026-04-24 20:27 51.01735 7.42403 8273 ft 280 kts 88°
2026-04-24 20:27 51.01462 7.45497 9169 ft 288 kts 105°
2026-04-24 20:28 51.00860 7.48548 10085 ft 292 kts 106°
2026-04-24 20:28 51.00240 7.51697 10648 ft 309 kts 106°
2026-04-24 20:28 50.99577 7.55090 10975 ft 333 kts 106°
2026-04-24 20:28 50.98867 7.58715 11340 ft 353 kts 106°
2026-04-24 20:29 50.98378 7.61203 11761 ft 359 kts 107°
2026-04-24 20:29 50.97366 7.66321 12770 ft 367 kts 107°
2026-04-24 20:29 50.96597 7.70207 13535 ft 372 kts 107°
2026-04-24 20:29 50.95827 7.74158 14276 ft 377 kts 105°
2026-04-24 20:30 50.95397 7.78281 14922 ft 382 kts 92°
2026-04-24 20:30 50.95522 7.82503 15570 ft 386 kts 80°
2026-04-24 20:30 50.96215 7.86636 16212 ft 390 kts 68°
2026-04-24 20:30 50.97422 7.90443 16851 ft 394 kts 58°
2026-04-24 20:31 50.98827 7.94206 17495 ft 399 kts 58°
2026-04-24 20:31 51.00246 7.98023 18113 ft 404 kts 58°
2026-04-24 20:31 51.01675 8.01889 18705 ft 409 kts 58°
2026-04-24 20:31 51.03120 8.05809 19250 ft 413 kts 58°
2026-04-24 20:32 51.04576 8.09774 19769 ft 418 kts 58°
2026-04-24 20:32 51.06049 8.13791 20324 ft 422 kts 58°
2026-04-24 20:32 51.07536 8.17852 20852 ft 427 kts 58°
2026-04-24 20:32 51.09034 8.21950 21393 ft 431 kts 58°
2026-04-24 20:33 51.10545 8.26087 21888 ft 435 kts 58°
2026-04-24 20:33 51.12069 8.30278 22413 ft 439 kts 58°
2026-04-24 20:33 51.13602 8.34504 22924 ft 443 kts 58°
2026-04-24 20:33 51.15147 8.38776 23427 ft 447 kts 58°
2026-04-24 20:34 51.16701 8.43095 23904 ft 451 kts 58°
2026-04-24 20:34 51.18264 8.47450 24311 ft 455 kts 58°
2026-04-24 20:34 51.19875 8.51812 24733 ft 457 kts 54°
2026-04-24 20:34 51.21798 8.55847 25141 ft 457 kts 47°
2026-04-24 20:35 51.23855 8.59737 25548 ft 460 kts 47°
2026-04-24 20:35 51.25924 8.63655 25999 ft 463 kts 47°
2026-04-24 20:35 51.28003 8.67611 26380 ft 467 kts 47°
2026-04-24 20:35 51.30094 8.71608 26762 ft 470 kts 47°
2026-04-24 20:36 51.32196 8.75641 27146 ft 474 kts 47°
2026-04-24 20:36 51.34307 8.79702 27522 ft 477 kts 47°
2026-04-24 20:36 51.36435 8.83801 27896 ft 480 kts 47°
2026-04-24 20:36 51.38576 8.87928 28252 ft 483 kts 47°
2026-04-24 20:37 51.40731 8.92080 28601 ft 486 kts 47°
2026-04-24 20:37 51.42899 8.96253 28957 ft 489 kts 47°
2026-04-24 20:37 51.45081 9.00455 29295 ft 492 kts 47°
2026-04-24 20:37 51.47275 9.04684 29635 ft 495 kts 46°
2026-04-24 20:38 51.49492 9.08937 29937 ft 497 kts 44°
2026-04-24 20:38 51.51942 9.12824 30319 ft 493 kts 36°
2026-04-24 20:38 51.54562 9.16244 30707 ft 491 kts 34°
2026-04-24 20:38 51.57221 9.19681 31136 ft 490 kts 34°
2026-04-24 20:39 51.59871 9.23111 31574 ft 488 kts 34°
2026-04-24 20:39 51.62514 9.26536 32022 ft 487 kts 34°
2026-04-24 20:39 51.65143 9.29954 32460 ft 485 kts 34°
2026-04-24 20:39 51.67761 9.33372 32924 ft 484 kts 34°
2026-04-24 20:40 51.70368 9.36784 33381 ft 482 kts 34°
2026-04-24 20:40 51.72967 9.40187 33805 ft 480 kts 34°
2026-04-24 20:40 51.75554 9.43581 34252 ft 479 kts 34°
2026-04-24 20:40 51.78136 9.46971 34641 ft 477 kts 34°
2026-04-24 20:41 51.80710 9.50349 35010 ft 477 kts 34°
2026-04-24 20:41 51.83374 9.53498 35150 ft 471 kts 27°
2026-04-24 20:41 51.89128 9.58423 35173 ft 467 kts 22°
2026-04-24 20:42 51.94909 9.63199 34675 ft 466 kts 22°
2026-04-24 20:42 51.97796 9.65592 33893 ft 467 kts 22°
2026-04-24 20:42 52.00699 9.68002 32991 ft 469 kts 22°
2026-04-24 20:43 52.03612 9.70424 32106 ft 472 kts 22°
2026-04-24 20:43 52.06540 9.72862 31210 ft 474 kts 22°
2026-04-24 20:43 52.09481 9.75317 30316 ft 476 kts 22°
2026-04-24 20:43 52.12432 9.77790 29293 ft 478 kts 22°
2026-04-24 20:44 52.15401 9.80283 28335 ft 478 kts 22°
2026-04-24 20:44 52.18336 9.82738 27665 ft 471 kts 21°
2026-04-24 20:44 52.21364 9.84493 26998 ft 455 kts
2026-04-24 20:44 52.24458 9.85323 26281 ft 448 kts
2026-04-24 20:45 52.27525 9.86076 25612 ft 443 kts
2026-04-24 20:45 52.30562 9.86812 24970 ft 439 kts
2026-04-24 20:45 52.33566 9.87534 24339 ft 434 kts
2026-04-24 20:45 52.36545 9.88251 23724 ft 430 kts
2026-04-24 20:46 52.39498 9.88963 23012 ft 427 kts
2026-04-24 20:46 52.42419 9.89667 22363 ft 422 kts
2026-04-24 20:46 52.45310 9.90364 21745 ft 418 kts
2026-04-24 20:46 52.48170 9.91060 21122 ft 413 kts
2026-04-24 20:47 52.51002 9.91750 20528 ft 409 kts
2026-04-24 20:47 52.53803 9.92434 19955 ft 405 kts
2026-04-24 20:47 52.56576 9.93110 19393 ft 401 kts
2026-04-24 20:47 52.59324 9.93783 18858 ft 397 kts
2026-04-24 20:48 52.62006 9.94442 18338 ft 393 kts
2026-04-24 20:48 52.64695 9.95103 17749 ft 389 kts
2026-04-24 20:48 52.67388 9.95764 17174 ft 384 kts
2026-04-24 20:48 52.70022 9.96411 16626 ft 381 kts
2026-04-24 20:49 52.72595 9.97043 16105 ft 377 kts
2026-04-24 20:49 52.75174 9.97676 15592 ft 373 kts
2026-04-24 20:49 52.77733 9.98305 15085 ft 370 kts
2026-04-24 20:49 52.80263 9.98929 14585 ft 366 kts
2026-04-24 20:50 52.82775 9.99551 14097 ft 363 kts
2026-04-24 20:50 52.85252 10.00253 13581 ft 361 kts 11°
2026-04-24 20:50 52.87649 10.01436 13047 ft 358 kts 14°
2026-04-24 20:50 52.90013 10.02682 12508 ft 355 kts 14°
2026-04-24 20:51 52.92350 10.03918 11973 ft 351 kts 14°
2026-04-24 20:51 52.94662 10.05142 11433 ft 347 kts 14°
2026-04-24 20:51 52.96960 10.06358 11186 ft 346 kts 14°
2026-04-24 20:51 52.99254 10.07571 11157 ft 346 kts 14°
2026-04-24 20:52 53.01552 10.08787 11165 ft 347 kts 14°
2026-04-24 20:52 53.03851 10.10004 11163 ft 347 kts 14°
2026-04-24 20:52 53.06150 10.11221 11167 ft 347 kts 14°
2026-04-24 20:52 53.08451 10.12443 11161 ft 347 kts 14°
2026-04-24 20:53 53.10751 10.13665 11159 ft 347 kts 14°
2026-04-24 20:53 53.13048 10.14883 11156 ft 347 kts 14°
2026-04-24 20:53 53.15346 10.16103 11154 ft 347 kts 14°
2026-04-24 20:53 53.17646 10.17325 11153 ft 347 kts 14°
2026-04-24 20:54 53.19944 10.18547 11152 ft 347 kts 14°
2026-04-24 20:54 53.22244 10.19772 11156 ft 347 kts 14°
2026-04-24 20:54 53.24543 10.20998 11148 ft 347 kts 14°
2026-04-24 20:54 53.26840 10.22223 11147 ft 347 kts 14°
2026-04-24 20:55 53.29140 10.23451 11122 ft 346 kts 14°
2026-04-24 20:55 53.31414 10.24673 10635 ft 341 kts 14°
2026-04-24 20:55 53.33622 10.25878 10302 ft 332 kts 14°
2026-04-24 20:55 53.35765 10.27057 10181 ft 316 kts 14°
2026-04-24 20:56 53.37806 10.28190 10059 ft 302 kts 14°
2026-04-24 20:56 53.39760 10.29286 9932 ft 289 kts 14°
2026-04-24 20:56 53.41630 10.30346 9783 ft 278 kts 14°
2026-04-24 20:56 53.43442 10.31376 9471 ft 273 kts 14°
2026-04-24 20:57 53.45231 10.32395 9088 ft 271 kts 14°
2026-04-24 20:57 53.47009 10.33408 8686 ft 269 kts 14°
2026-04-24 20:57 53.48775 10.34408 8271 ft 267 kts 14°
2026-04-24 20:57 53.50536 10.35397 7861 ft 266 kts 14°
2026-04-24 20:58 53.52285 10.36380 7451 ft 264 kts 14°
2026-04-24 20:58 53.54026 10.37358 7047 ft 263 kts 14°
2026-04-24 20:58 53.55757 10.38333 6666 ft 261 kts 14°
2026-04-24 20:58 53.57495 10.39159 6237 ft 256 kts
2026-04-24 20:59 53.59258 10.39199 5799 ft 252 kts 355°
2026-04-24 20:59 53.61006 10.39086 5394 ft 250 kts 355°
2026-04-24 20:59 53.62742 10.38952 4974 ft 249 kts 354°
2026-04-24 20:59 53.64470 10.38816 4538 ft 248 kts 354°
2026-04-24 21:00 53.66186 10.38676 4120 ft 246 kts 354°
2026-04-24 21:00 53.67882 10.38545 3711 ft 243 kts 354°
2026-04-24 21:00 53.69563 10.38414 3319 ft 240 kts 354°
2026-04-24 21:00 53.71218 10.38282 3010 ft 236 kts 355°
2026-04-24 21:01 53.72861 10.38140 2986 ft 237 kts 354°
2026-04-24 21:01 53.74510 10.37936 2984 ft 237 kts 347°
2026-04-24 21:01 53.75522 10.37289 2985 ft 236 kts 327°
2026-04-24 21:01 53.76619 10.35261 2986 ft 239 kts 298°
2026-04-24 21:02 53.76929 10.32478 2986 ft 248 kts 271°
2026-04-24 21:02 53.76695 10.29574 2999 ft 251 kts 265°
2026-04-24 21:02 53.76347 10.26681 2999 ft 253 kts 257°
2026-04-24 21:02 53.75453 10.24078 3002 ft 261 kts 236°
2026-04-24 21:03 53.74290 10.21712 3003 ft 263 kts 235°
2026-04-24 21:03 53.73114 10.19333 2952 ft 264 kts 236°
2026-04-24 21:03 53.71949 10.16958 2680 ft 261 kts 236°
2026-04-24 21:03 53.70800 10.14613 2343 ft 256 kts 235°
2026-04-24 21:04 53.69707 10.12392 2008 ft 236 kts 236°
2026-04-24 21:04 53.68698 10.10340 1694 ft 219 kts 236°
2026-04-24 21:04 53.67753 10.08415 1393 ft 207 kts 236°
2026-04-24 21:04 53.66863 10.06602 1117 ft 196 kts 236°
2026-04-24 21:05 53.66014 10.04876 851 ft 186 kts 235°
2026-04-24 21:05 53.65225 10.03277 620 ft 165 kts 235°
2026-04-24 21:05 53.64531 10.01866 383 ft 149 kts 235°
2026-04-24 21:05 53.63903 10.00594 191 ft 141 kts 234°
2026-04-24 21:06 53.63319 9.99373 52 ft 113 kts 233°
2026-04-24 21:06 53.62916 9.98579 49 ft 51 kts 229°
2026-04-24 21:06 53.62726 9.98178 51 ft 41 kts 232°
2026-04-24 21:06 53.62550 9.97825 47 ft 23 kts 214°
2026-04-24 21:07 53.62452 9.97827 49 ft 0 kts 141°
2026-04-24 21:07 53.62424 9.97874 50 ft 0 kts 127°
2026-04-24 21:07 53.62424 9.97896 50 ft 7 kts 83°
2026-04-24 21:08 53.62468 9.98091 50 ft 27 kts 49°
2026-04-24 21:08 53.62561 9.98292 51 ft 14 kts 48°
2026-04-24 21:08 53.62643 9.98463 51 ft 24 kts 50°
2026-04-24 21:08 53.62778 9.98727 50 ft 35 kts 50°
2026-04-24 21:09 53.62842 9.98854 50 ft 8 kts 50°
2026-04-24 21:09 53.62912 9.99000 50 ft 20 kts 51°
2026-04-24 21:09 53.63012 9.99192 50 ft 22 kts 47°
2026-04-24 21:09 53.63037 9.99248 50 ft 0 kts 55°
2026-04-24 21:10 53.63092 9.99381 50 ft 29 kts 55°
2026-04-24 21:10 53.63187 9.99597 49 ft 5 kts 51°
2026-04-24 21:10 53.63209 9.99642 50 ft 0 kts 51°
2026-04-24 21:11 53.63219 9.99661 50 ft 13 kts 47°
2026-04-24 21:12 53.63333 9.99873 50 ft 32 kts 49°
2026-04-24 21:12 53.63415 10.00032 51 ft 11 kts 49°
2026-04-24 21:12 53.63440 10.00081 51 ft 0 kts 49°
2026-04-24 21:12 53.63452 10.00124 51 ft 9 kts 74°
2026-04-24 21:13 53.63429 10.00185 50 ft 3 kts 154°
2026-04-24 21:13 53.63411 10.00256 51 ft 11 kts 87°
2026-04-24 21:13 53.63415 10.00343 51 ft 0 kts 85°
2026-04-24 21:13 53.63415 10.00346 51 ft 0 kts 85°